Flag for U.S.A. Weather past 2 weeks in New Haven, Connecticut, U.S.A.

Now
45 °F

Sunny.


Feels Like: 41 °F
Forecast: 33 / 57 °F
Wind: 7 mph from North

Location: Tweed-New Haven Airport

Current Time: Apr 25, 2015 at 10:38:05 AM

Latest Report: Apr 25, 2015 at 9:53 AM


Visibility: 10 mi

Pressure: 29.83 "Hg

Humidity: 42%

Dew point: 23 °F

Location of New HavenLocation

Historic Weather in New Haven — Graph

°F

New Haven temperature yesterday

Maximum temperature yesterday: 45 °F (at 10:53 AM)
Minimum temperature yesterday: 38 °F (at 10:53 PM)
Average temperature yesterday: 42 °F

Past Weeks' High & Low Weather Summary

 TemperatureHumidityPressure
High69 °F (Apr 15, 1:53 PM)100% (Apr 10, 5:53 PM)30.50 "Hg (Apr 10, 5:53 PM)
Low33 °F (Apr 13, 3:53 AM)14% (Apr 15, 4:53 PM)29.55 "Hg (Apr 21, 3:53 AM)
Average50 °F62%29.99 "Hg
* Reported Apr 10 8:53 AM — Apr 25 8:53 AM, New Haven, Weather by CustomWeather, © 2015

Note: Actual official high and low records may vary slightly from our data, if they occured in-between our weather recording intervals... More about our weather records

Advertising

New Haven weather history for previous 24 hours

 ConditionsComfort  
Time TempWeatherWind HumidityBarometerVisibility
8:53 AM
Sat, Apr 25
41 °FSunny.12 mph49%29.85 "Hg10 mi
7:53 AM39 °FSunny.6 mph53%29.88 "Hg10 mi
6:53 AM35 °FClear.No wind59%29.88 "Hg10 mi
5:53 AM36 °FClear.5 mph59%29.87 "Hg10 mi
4:53 AM36 °FClear.3 mph57%29.86 "Hg10 mi
3:53 AM35 °FClear.3 mph59%29.85 "Hg10 mi
2:53 AM36 °FClear.7 mph59%29.85 "Hg10 mi
1:53 AM37 °FClear.7 mph57%29.87 "Hg10 mi
12:53 AM38 °FClear.8 mph53%29.88 "Hg10 mi
11:53 PM
Fri, Apr 24
38 °FClear.12 mph48%29.89 "Hg10 mi
10:53 PM38 °FClear.12 mph48%29.89 "Hg10 mi
9:53 PM40 °FClear.9 mph45%29.89 "Hg10 mi
8:53 PM41 °FPassing clouds.15 mph43%29.88 "Hg10 mi
7:53 PM43 °FPartly sunny.12 mph42%29.87 "Hg10 mi
6:53 PM43 °FPartly sunny.9 mph40%29.85 "Hg10 mi
5:53 PM44 °FPartly sunny.14 mph40%29.83 "Hg10 mi
4:53 PM45 °FPartly sunny.18 mph38%29.82 "Hg10 mi
3:53 PM45 °FOvercast.13 mph40%29.80 "Hg10 mi
2:53 PM45 °FOvercast.13 mph38%29.79 "Hg10 mi
1:53 PM44 °FOvercast.10 mph41%29.80 "Hg10 mi
12:53 PM44 °FPartly sunny.15 mph40%29.81 "Hg10 mi
11:53 AM44 °FOvercast.12 mph38%29.81 "Hg10 mi
10:53 AM45 °FScattered clouds.16 mph38%29.81 "Hg10 mi
Weather by CustomWeather, © 2015

See weather overviewHow to use our weather pages